Погода в Проне

Россия / Тульская область     54°02′11″N   38°32′08″E
темп.,
°C
ветер,
м/с
пор.,
м/с
влажн.,
%
обл.,
%
осадки,
мм/ч
давл.,
гПа
погр.,
м
26 сентября, вс
вс2600:00+9юз51194100 1.6 1004695
03:00+9зюз51095100 1.8 1004499
06:00+9зсз5996100 0.1 1004621
09:00+9сз6118881 0.6 1004756
12:00+10сз81280100 1.1 10061529
15:00+8сз81286100 2.1 10071156
18:00+8сз81488100 1.1 10081022
21:00+9ссз81393100 2.2 1010867
27 сентября, пн
пн2700:00+9с61193100 0.5 1012784
03:00+8с61194100 0.8 1014613
06:00+8с61194100 0.4 1017596
09:00+9с7118421 0.4 1018757
12:00+9с61086100 0.1 1020631
15:00+9с5108592 0.1 1020721
18:00+9с51086100 0.2 1021626
21:00+8ссв5990100 0.4 1021908
28 сентября, вт
вт2800:00+8ссв5892100 0.3 1022986
03:00+7св5891100 0.4 1023647
06:00+5св5888100 0.1 1025858
09:00+5св5990100 0.2 1027855
12:00+6св5883100 0.1 1028783
15:00+7всв5870100 0.2 10291277
18:00+7св5765100 0.0 1031461
21:00+5ссв337718 0.0 103246
29 сентября, ср
ср2900:00+3ссв34825 0.0 103368
03:00+2ссв34830 0.0 103477
06:00+1с35860 0.0 1034100
09:00+5ссв46711 0.0 1035319
12:00+9ссв45545 0.0 1034886
15:00+10ссв45475 0.0 10341168
18:00+7ссв33625 0.0 103431
21:00+5ссв226813 0.0 103525
30 сентября, чт
чт3000:00+5ссв227320 0.0 103520
03:00+4ссв22785 0.0 103512
06:00+3с22815 0.0 103617
09:00+7ссз22675 0.0 1036191
12:00+11ссз22545 0.0 1036685
15:00+12ссз33515 0.0 10351011
18:00+9сз33665 0.0 103527
21:00+7ссз33745 0.0 103646